Back to catalog

STARLINK-32513

AliveCommunicationsVLEO
NORAD 61964·PAYLOAD·🇺🇸 United States

Launched Nov 14, 2024 from Cape Canaveral Space Force Station

Loading…

Next Passes (next 24 hours)

TLE

FreshSource: CelesTrak SupGP

Epoch: Sep 14, 2026, 21:30 UTC

1 61964C 24210F   26257.89631944 -.00022723  00000+0 -82284-3 0  2572
2 61964  43.0021 176.7991 0001349 263.0618 115.2127 15.27596472    19

Track STARLINK-32513 in real time with AllMySat

Download on the App Store